User: anonymous   Login
Location: Unspecified
(42.0334°N, 93.6656°W)
Time: 08:24:00
(UTC-05:00)
Language:

Iridium 63 - Orbit

View from above orbital plane
View from above orbital plane
View from above satellite
View from above satellite

Ground track
Ground track

The orbit data is extracted from the following two-line orbital elements,

1 25286U 98021B   14297.46582442  .00000603  00000-0  20821-3 0   278
2 25286 086.3972 268.2606 0002281 098.7809 051.1772 14.34266390866454
Epoch (UTC): 24 October 2014 11:10:47
Eccentricity: 0.0002281
inclination: 86.3972°
perigee height: 776 km
apogee height: 779 km
right ascension of ascending node: 268.2606°
argument of perigee: 98.7809°
revolutions per day: 14.34266390
mean anomaly at epoch: 51.1772°
orbit number at epoch: 86645

The dashed part of the orbit path shows where the satellite is in the earth's shadow,  

DLR